GW3703 Weather Reports


time (UTC)temp
C
wind
direction
speed
KPH
gust
KPH
rain 1hr
cm
rain 24hr
cm
rain mn
cm
humidity
%
barometer
mb
20260510071604 21 360 0.0 4.8 0.00 0.00 0.00 85 1010.8
20260510070053 21 0 0.0 0.0 0.00 0.00 0.00 84 1011.0
20260510064600 21 0 0.0 1.6 0.00 0.00 0.00 83 1011.1
20260510063052 21 0 0.0 0.0 0.00 0.00 0.00 83 1011.0
20260510061551 22 0 0.0 6.4 0.00 0.00 0.00 82 1011.1
20260510060051 22 198 0.0 8.0 0.00 0.00 0.00 81 1011.1
20260510054553 22 247 3.2 9.7 0.00 0.00 0.00 79 1010.8
20260510053052 22 286 3.2 11.3 0.00 0.00 0.00 79 1010.7
20260510051556 22 256 3.2 6.4 0.00 0.00 0.00 80 1010.7
20260510050059 22 297 1.6 11.3 0.00 0.00 0.00 80 1010.5
20260510044553 23 257 1.6 4.8 0.00 0.00 0.00 79 1010.5
20260510043106 23 0 1.6 9.7 0.00 0.00 0.00 80 1010.6
20260510041550 23 257 3.2 6.4 0.00 0.00 0.00 80 1010.3
20260510040057 23 257 3.2 6.4 0.00 0.00 0.00 79 1010.1
20260510034551 23 252 0.0 4.8 0.00 0.00 0.00 79 1010.0
20260510033054 24 0 0.0 0.0 0.00 0.00 0.00 78 1010.0
20260510031556 25 0 0.0 0.0 0.00 0.00 0.00 76 1009.8
20260510030055 25 142 0.0 0.0 0.00 0.00 0.00 75 1009.6
20260510024553 25 0 0.0 1.6 0.00 0.00 0.00 74 1009.2
20260510023054 26 246 1.6 6.4 0.00 0.00 0.00 72 1008.9
20260510021552 26 250 3.2 11.3 0.00 0.00 0.00 71 1008.7
20260510020053 27 281 6.4 16.1 0.00 0.00 0.00 69 1008.5
20260510014559 27 274 11.3 19.3 0.00 0.00 0.00 68 1008.1
20260510013054 28 300 11.3 25.7 0.00 0.00 0.00 66 1008.0
20260510011558 28 271 0.0 1.6 0.00 0.00 0.00 67 1008.1
20260510010057 29 0 0.0 0.0 0.00 0.00 0.00 56 1008.0
20260510004558 30 0 0.0 0.0 0.00 0.00 0.00 56 1008.1
20260510003106 30 0 0.0 0.0 0.00 0.00 0.00 59 1008.1
20260510001555 31 0 0.0 3.2 0.00 0.00 0.00 56 1007.9
20260510000055 31 244 3.2 6.4 0.00 0.00 0.00 53 1007.7
20260509234552 31 244 3.2 6.4 0.00 0.00 0.00 55 1007.7
20260509233056 31 261 1.6 6.4 0.00 0.00 0.00 53 1007.8
20260509231557 31 0 0.0 8.0 0.00 0.00 0.00 53 1007.6
20260509230057 31 250 6.4 12.9 0.00 0.00 0.00 55 1007.5
20260509224559 32 296 4.8 11.3 0.00 0.00 0.00 55 1007.5
20260509223054 32 244 0.0 11.3 0.00 0.00 0.00 54 1007.5
20260509221603 32 246 4.8 9.7 0.00 0.00 0.00 55 1007.6
20260509220055 32 128 1.6 9.7 0.00 0.00 0.00 56 1007.7
20260509214559 32 0 0.0 6.4 0.00 0.00 0.00 53 1007.8
20260509213056 32 0 3.2 8.0 0.00 0.00 0.00 53 1007.9
20260509211558 32 0 3.2 8.0 0.00 0.00 0.00 54 1008.0
20260509210113 32 136 1.6 6.4 0.00 0.00 0.00 56 1008.0
20260509204600 32 81 0.0 8.0 0.00 0.00 0.00 56 1008.1
20260509203056 31 138 3.2 11.3 0.00 0.00 0.00 60 1008.3
20260509201602 31 196 0.0 6.4 0.00 0.00 0.00 62 1008.5
20260509194553 31 59 3.2 8.0 0.00 0.00 0.00 63 1008.8
20260509193053 31 26 1.6 12.9 0.00 0.00 0.00 61 1009.1
20260509191558 31 35 4.8 19.3 0.00 0.00 0.00 63 1009.2
20260509190109 30 35 3.2 11.3 0.00 0.00 0.00 63 1009.2
20260509184552 30 120 4.8 16.1 0.00 0.00 0.00 66 1009.2
20260509183056 30 90 1.6 12.9 0.00 0.00 0.00 68 1009.4
20260509181603 30 47 3.2 12.9 0.00 0.00 0.00 65 1009.5
20260509180100 30 95 4.8 14.5 0.00 0.00 0.00 69 1009.8
20260509174600 30 96 3.2 12.9 0.00 0.00 0.00 64 1009.8
20260509173059 29 63 8.0 17.7 0.00 0.00 0.00 68 1010.2
20260509171602 30 94 3.2 11.3 0.00 0.00 0.00 67 1010.3
20260509170107 28 94 8.0 16.1 0.00 0.00 0.00 72 1010.4
20260509164600 28 136 0.0 14.5 0.00 0.00 0.00 75 1010.5
20260509163058 27 23 1.6 17.7 0.00 0.00 0.00 75 1010.2
20260509161601 27 51 3.2 16.1 0.00 0.00 0.00 74 1010.2
20260509160059 27 344 3.2 11.3 0.00 0.00 0.00 73 1009.8
20260509154555 27 288 6.4 14.5 0.00 0.00 0.00 77 1009.1
20260509153057 26 347 4.8 12.9 0.00 0.00 0.00 77 1010.1
20260509151603 26 341 3.2 12.9 0.00 0.00 0.00 79 1010.5
20260509150058 25 61 1.6 12.9 0.00 0.00 0.00 81 1010.3
20260509144555 25 0 1.6 22.5 0.00 0.00 0.00 82 1010.1
20260509143056 25 279 12.9 19.3 0.00 0.00 0.00 85 1009.0
20260509141557 24 273 9.7 16.1 0.00 0.00 0.00 88 1009.8
20260509134625 23 286 0.0 0.0 0.00 0.00 0.00 89 1010.3
20260509133057 23 34 1.6 4.8 0.00 0.00 0.00 89 1010.1
20260509131554 23 0 0.0 0.0 0.00 0.00 0.00 87 1010.3
20260509130052 23 0 0.0 0.0 0.00 0.00 0.00 89 1009.9
20260509124552 23 0 0.0 0.0 0.00 0.00 0.00 90 1009.9
20260509123055 23 0 0.0 1.6 0.00 0.00 0.00 90 1010.4
20260509121554 23 0 0.0 14.5 0.00 0.00 0.00 91 1010.6
20260509120056 23 103 3.2 9.7 0.00 0.00 0.00 91 1010.6
20260509114552 23 74 3.2 9.7 0.00 0.00 0.00 91 1009.8
20260509113056 22 140 1.6 16.1 0.00 0.00 0.00 92 1009.2
20260509111554 22 172 12.9 25.7 0.00 0.00 0.00 92 1008.0
20260509110053 22 135 6.4 24.1 0.00 0.00 0.00 92 1008.5
20260509104555 22 259 8.0 12.9 0.00 0.00 0.00 92 1009.2
20260509103055 22 0 0.0 16.1 0.00 0.00 0.00 91 1009.8
20260509101601 22 242 6.4 11.3 0.00 0.00 0.00 91 1008.9
20260509100054 22 244 3.2 9.7 0.00 0.00 0.00 91 1009.1
20260509094553 22 0 0.0 4.8 0.00 0.00 0.00 91 1008.7
20260509093059 22 0 0.0 4.8 0.00 0.00 0.00 91 1008.7
20260509091556 22 291 3.2 6.4 0.00 0.00 0.00 91 1008.4
20260509090053 22 0 0.0 0.0 0.00 0.00 0.00 91 1008.4
20260509084555 22 0 0.0 0.0 0.00 0.00 0.00 91 1008.4
20260509083054 22 0 0.0 0.0 0.00 0.00 0.00 91 1008.8
20260509081555 22 0 0.0 0.0 0.00 0.00 0.00 91 1009.3
20260509080050 22 0 0.0 0.0 0.00 0.00 0.00 90 1009.2
20260509074603 22 0 1.6 8.0 0.00 0.00 0.00 90 1009.2
20260509073050 22 0 0.0 4.8 0.00 0.00 0.00 90 1009.0